Le nostre stazioni meteo in Italia

Pubblicità
Il mio iltempo24.it
Concordia Sagittaria, Italia (16107): Temperatura & dewpoint: 07.12.2018 22:00:00 - 13.12.2018 22:00:00 (CET)Concordia Sagittaria, Italia (16107): velocità del vento: 07.12.2018 22:00:00 - 13.12.2018 22:00:00 (CET)Concordia Sagittaria, Italia (16107): direzione del vento: 07.12.2018 22:00:00 - 13.12.2018 22:00:00 (CET)Concordia Sagittaria, Italia (16107): reduced air pressure: 07.12.2018 22:00:00 - 13.12.2018 22:00:00 (CET)Concordia Sagittaria, Italia (16107): precipitazioni: 07.12.2018 22:00:00 - 13.12.2018 22:00:00 (CET)
Data & Tempo tt [°C] td [°C] ff [km/h] ff [kn] dd ppp [hPa] rr [mm]
13.12.2018 22:00:00 2,6 0,0 13 7 N 1021,2 -
13.12.2018 21:00:00 3,6 0,4 15 8 N 1021,1 -
13.12.2018 20:00:00 3,7 -0,2 22 12 NE 1021,2 -
13.12.2018 19:00:00 4,4 -0,1 28 15 ENE 1021,3 0,0
13.12.2018 18:00:00 5,1 0,0 18 10 ENE 1020,8 -
13.12.2018 17:00:00 5,3 0,0 28 15 NE 1021,1 -
13.12.2018 16:00:00 5,9 0,2 16 9 NE 1021,0 -
13.12.2018 15:00:00 6,0 1,1 9 5 NNE 1021,3 -
13.12.2018 14:00:00 5,1 0,2 18 10 NNE 1021,6 -
13.12.2018 13:00:00 5,1 0,6 16 9 NNE 1022,1 0,0
13.12.2018 12:00:00 4,0 0,3 13 7 N 1022,5 -
13.12.2018 11:00:00 2,9 -0,3 11 6 N 1022,6 -
13.12.2018 10:00:00 2,1 -1,0 9 5 NNE 1022,3 -
13.12.2018 09:00:00 2,4 -1,6 13 7 N 1022,1 -
13.12.2018 08:00:00 2,9 -1,9 16 9 N 1022,3 -
13.12.2018 07:00:00 2,3 -1,9 18 10 NNO 1022,6 0,0
13.12.2018 06:00:00 2,1 -2,5 15 8 NNO 1022,8 -
13.12.2018 05:00:00 2,5 -1,5 15 8 N 1023,5 -
13.12.2018 04:00:00 1,6 0,0 9 5 N 1023,6 -
13.12.2018 03:00:00 0,2 -2,2 2 1 SE 1024,0 -
13.12.2018 02:00:00 -0,3 -3,4 8 4 NNO 1024,1 -
13.12.2018 01:00:00 -0,3 -3,2 5 3 N 1024,4 0,0
13.12.2018 00:00:00 0,2 -2,4 4 2 NNO 1024,4 -
12.12.2018 23:00:00 0,3 -2,1 5 3 NNO 1024,4 -
12.12.2018 22:00:00 0,3 -1,2 2 1 NO 1024,3 -
12.12.2018 21:00:00 0,5 -1,9 4 2 OSO 1024,3 -
12.12.2018 20:00:00 1,6 -3,0 0 0 N 1024,1 -
12.12.2018 19:00:00 3,6 -4,0 0 0 N 1023,9 0,0
12.12.2018 18:00:00 8,6 -3,1 0 0 N 1023,8 -
12.12.2018 17:00:00 9,1 -3,9 4 2 OSO 1023,8 -
12.12.2018 16:00:00 9,6 -1,9 2 1 S 1024,0 -
12.12.2018 15:00:00 7,9 -2,0 4 2 NNE 1024,3 -
12.12.2018 14:00:00 7,0 -1,3 2 1 N 1024,8 -
12.12.2018 13:00:00 4,9 -2,5 4 2 N 1025,2 0,0
12.12.2018 12:00:00 2,9 -2,3 2 1 N 1025,3 -
12.12.2018 11:00:00 0,6 -2,8 4 2 NNO 1025,1 -
12.12.2018 10:00:00 -0,8 -4,6 5 3 NO 1024,9 -
12.12.2018 09:00:00 -0,7 -3,8 5 3 NNO 1024,4 -
12.12.2018 08:00:00 -1,7 -3,6 5 3 N 1024,3 -
12.12.2018 07:00:00 -2,2 -3,6 5 3 NNO 1024,4 0,0
12.12.2018 06:00:00 -2,5 -4,2 2 1 NNO 1024,6 -
12.12.2018 05:00:00 -1,0 -2,5 5 3 O 1024,5 -
12.12.2018 04:00:00 -1,3 -3,7 4 2 NNO 1024,3 -
12.12.2018 03:00:00 -0,7 -2,9 2 1 NNO 1024,1 -
12.12.2018 02:00:00 -0,8 -3,5 4 2 NNO 1024,2 -
12.12.2018 01:00:00 1,1 -2,2 9 5 NNE 1024,0 0,0
12.12.2018 00:00:00 1,3 -0,2 4 2 N 1024,0 -
11.12.2018 23:00:00 1,9 0,4 5 3 N 1024,1 -
11.12.2018 22:00:00 2,3 0,8 5 3 N 1024,0 -
11.12.2018 21:00:00 2,0 0,5 8 4 ONO 1023,6 -
11.12.2018 20:00:00 2,7 0,1 2 1 S 1023,2 -
11.12.2018 19:00:00 4,7 0,0 4 2 S 1022,8 0,0
11.12.2018 18:00:00 9,2 2,4 5 3 SSE 1022,8 -
11.12.2018 17:00:00 11,6 2,5 4 2 SSE 1022,5 -
11.12.2018 16:00:00 11,6 3,5 8 4 SSO 1022,3 -
11.12.2018 15:00:00 11,6 3,3 5 3 ESE 1022,4 -
11.12.2018 14:00:00 9,5 2,3 2 1 O 1022,8 -
11.12.2018 13:00:00 7,7 4,4 0 0 N 1023,3 0,0
11.12.2018 12:00:00 4,6 3,1 0 0 N 1023,3 -
11.12.2018 11:00:00 1,1 -0,4 8 4 OSO 1023,2 -
11.12.2018 10:00:00 -2,2 -3,6 8 4 NNO 1022,5 -
11.12.2018 09:00:00 -1,7 -3,1 4 2 O 1022,2 -
11.12.2018 08:00:00 -1,0 -2,5 8 4 NNO 1021,8 -
11.12.2018 07:00:00 0,0 -1,5 8 4 NNE 1021,8 0,0
11.12.2018 06:00:00 -0,1 -1,6 8 4 NNO 1022,0 -
11.12.2018 05:00:00 -0,5 -1,8 9 5 ENE 1021,8 -
11.12.2018 04:00:00 -1,0 -2,3 0 0 N 1020,9 -
11.12.2018 03:00:00 0,6 -0,7 5 3 ONO 1020,7 -
11.12.2018 02:00:00 -0,7 -2,2 4 2 NE 1021,5 -
11.12.2018 01:00:00 0,6 -0,9 2 1 ONO 1021,3 0,0
11.12.2018 00:00:00 0,2 -1,3 4 2 ONO 1021,4 -
10.12.2018 23:00:00 1,1 -0,4 5 3 SE 1021,2 -
10.12.2018 22:00:00 1,9 0,4 5 3 O 1020,9 -
10.12.2018 21:00:00 2,6 1,1 5 3 OSO 1021,1 -
10.12.2018 20:00:00 3,3 1,8 4 2 OSO 1020,6 -
10.12.2018 19:00:00 5,1 3,6 0 0 N 1020,2 0,0
10.12.2018 18:00:00 7,8 6,2 4 2 SO 1019,8 -
10.12.2018 17:00:00 8,1 6,5 2 1 SSE 1019,6 -
10.12.2018 16:00:00 8,3 6,7 5 3 O 1019,3 -
10.12.2018 15:00:00 7,6 6,0 5 3 ENE 1018,9 -
10.12.2018 14:00:00 6,5 5,0 13 7 ONO 1019,0 -
10.12.2018 13:00:00 5,0 3,6 4 2 ONO 1019,3 0,0
10.12.2018 12:00:00 4,0 2,6 4 2 NO 1018,4 -
10.12.2018 11:00:00 1,6 0,3 4 2 NO 1017,4 -
10.12.2018 10:00:00 0,9 -0,4 4 2 ENE 1017,0 -
10.12.2018 09:00:00 1,2 -0,1 4 2 NNO 1016,4 -
10.12.2018 08:00:00 0,7 -0,6 8 4 N 1015,6 -
10.12.2018 07:00:00 1,1 -0,2 4 2 OSO 1015,3 0,0
10.12.2018 06:00:00 1,5 0,2 2 1 N 1015,0 -
10.12.2018 05:00:00 1,5 0,0 5 3 NNO 1014,9 -
10.12.2018 04:00:00 2,4 0,9 0 0 N 1014,1 -
10.12.2018 03:00:00 2,8 1,3 4 2 SSO 1013,8 -
10.12.2018 02:00:00 2,7 1,2 0 0 N 1013,3 -
10.12.2018 01:00:00 2,7 1,2 0 0 N 1012,7 0,0
10.12.2018 00:00:00 2,9 1,4 0 0 N 1012,0 -
09.12.2018 23:00:00 4,9 3,4 2 1 S 1011,9 -
09.12.2018 22:00:00 5,5 4,0 8 4 NNO 1011,7 -
09.12.2018 21:00:00 6,8 5,3 5 3 SSO 1011,1 -
09.12.2018 20:00:00 8,1 5,4 8 4 O 1011,1 -
09.12.2018 19:00:00 9,2 5,1 5 3 OSO 1010,6 0,0
09.12.2018 18:00:00 11,4 5,9 9 5 O 1010,7 -
09.12.2018 17:00:00 12,4 7,0 5 3 O 1010,4 -
09.12.2018 16:00:00 12,1 7,4 11 6 N 1009,6 -
09.12.2018 15:00:00 12,3 7,5 15 8 NNO 1010,9 -
09.12.2018 14:00:00 11,0 8,4 9 5 N 1011,1 -
09.12.2018 13:00:00 8,8 7,2 16 9 N 1011,7 0,0
09.12.2018 12:00:00 6,8 5,3 13 7 N 1012,8 -
09.12.2018 11:00:00 4,3 2,8 18 10 N 1012,8 -
09.12.2018 10:00:00 3,3 1,8 9 5 N 1013,3 -
09.12.2018 09:00:00 3,6 2,1 5 3 N 1014,1 -
09.12.2018 08:00:00 3,6 2,1 9 5 NNE 1014,8 -
09.12.2018 07:00:00 4,1 2,6 9 5 N 1016,1 0,0
09.12.2018 06:00:00 3,9 2,4 8 4 N 1017,0 -
09.12.2018 05:00:00 4,7 3,3 4 2 NO 1018,4 -
09.12.2018 04:00:00 4,0 2,6 0 0 N 1018,5 -
09.12.2018 03:00:00 3,7 2,2 4 2 NE 1019,3 -
09.12.2018 02:00:00 2,7 1,2 2 1 N 1020,2 -
09.12.2018 01:00:00 3,1 1,6 2 1 ENE 1020,1 0,0
09.12.2018 00:00:00 3,5 2,0 0 0 N 1020,3 -
08.12.2018 23:00:00 3,9 2,4 0 0 N 1020,4 -
08.12.2018 22:00:00 4,8 3,3 0 0 N 1020,4 -
08.12.2018 21:00:00 5,1 3,6 0 0 N 1020,3 -
08.12.2018 20:00:00 6,5 5,0 0 0 N 1020,3 -
08.12.2018 19:00:00 8,4 6,0 0 0 N 1020,1 0,0
08.12.2018 18:00:00 11,5 7,8 4 2 S 1019,4 -
08.12.2018 17:00:00 12,6 8,4 5 3 SSE 1018,2 -
08.12.2018 16:00:00 12,9 8,9 9 5 SSE 1018,2 -
08.12.2018 15:00:00 12,9 9,1 4 2 SSO 1017,8 -
08.12.2018 14:00:00 11,5 9,9 11 6 S 1017,5 -
08.12.2018 13:00:00 9,4 7,8 5 3 SO 1017,1 0,0
08.12.2018 12:00:00 9,6 8,0 13 7 OSO 1016,2 -
08.12.2018 11:00:00 8,6 7,0 9 5 O 1014,7 -
08.12.2018 10:00:00 8,6 7,0 9 5 N 1012,9 -
08.12.2018 09:00:00 8,3 6,9 21 11 NNE 1013,6 -
08.12.2018 08:00:00 7,5 6,1 13 7 NO 1013,1 -
08.12.2018 07:00:00 7,3 5,9 5 3 N 1013,1 0,0
08.12.2018 06:00:00 7,2 5,8 9 5 N 1013,6 -
08.12.2018 05:00:00 7,1 5,7 5 3 NNE 1014,9 -
08.12.2018 04:00:00 7,0 5,6 8 4 N 1015,4 -
08.12.2018 03:00:00 6,8 5,4 4 2 N 1016,6 -
08.12.2018 02:00:00 6,6 5,2 9 5 N 1018,0 -
08.12.2018 01:00:00 7,2 5,8 4 2 NNO 1019,1 0,0
08.12.2018 00:00:00 6,9 5,5 2 1 ONO 1020,1 -
07.12.2018 23:00:00 6,3 4,9 2 1 OSO 1020,7 -
07.12.2018 22:00:00 3,5 2,0 0 0 N 1021,2 -

tt = Temperatura
td = dewpoint
ff = velocità del vento
dd = direzione del vento
ppp = reduced air pressure
rr = precipitazioni

Stazioni seguenti

WeatherPro
AMSI
MeteoEarth